When you browse on this site, cookies collect data to enhance your experience and personalize the content and advertising you see.
Visit our Privacy Policy to learn more. By continuing to use the site, you agree to this use of cookies and data.
  • In Netherlands
  • List of Countries
  • For 7 days
  • Water Temperature
  • Satellite Maps
  • Weather Map
  • Weather Widgets
  • user-avatar
    Login

    Hourly Weather Albany

    Today, 20 March, Wednesday

    Time Temperature Precipitation Wind Pressure Humidity
    00:00 +22°C° 0.3 mm 1 mps 755 mmHg 86%
    01:00 +22°C° 0.3 mm 1 mps 755 mmHg 86%
    02:00 +21°C° 0 mm 2 mps 755 mmHg 83%
    03:00 +22°C° 0 mm 1 mps 755 mmHg 84%
    04:00 +21°C° 0 mm 1 mps 755 mmHg 86%
    05:00 +21°C° 0 mm 1 mps 755 mmHg 87%
    06:00 +21°C° 0 mm 2 mps 755 mmHg 87%
    07:00 +21°C° 0 mm 2 mps 755 mmHg 86%
    08:00 +23°C° 0 mm 2 mps 756 mmHg 85%
    09:00 +24°C° 0 mm 3 mps 756 mmHg 82%
    10:00 +25°C° 0 mm 3 mps 756 mmHg 78%
    11:00 +26°C° 0 mm 4 mps 756 mmHg 74%
    12:00 +25°C° 0 mm 4 mps 756 mmHg 75%
    13:00 +25°C° 0 mm 4 mps 756 mmHg 75%
    14:00 +25°C° 0 mm 5 mps 756 mmHg 76%
    15:00 +23°C° 0.1 mm 5 mps 756 mmHg 79%
    16:00 +22°C° 0.1 mm 5 mps 756 mmHg 83%
    17:00 +21°C° 0.1 mm 5 mps 756 mmHg 87%
    18:00 +21°C° 0 mm 5 mps 757 mmHg 87%
    19:00 +21°C° 0 mm 5 mps 757 mmHg 88%
    20:00 +20°C° 0 mm 5 mps 757 mmHg 89%
    21:00 +20°C° 0.1 mm 5 mps 757 mmHg 89%
    22:00 +20°C° 0.1 mm 5 mps 757 mmHg 89%
    23:00 +20°C° 0.1 mm 5 mps 757 mmHg 89%

    Tomorrow, 21 March, Thursday

    Time Temperature Precipitation Wind Pressure Humidity
    00:00 +20°C° 0 mm 5 mps 757 mmHg 90%
    01:00 +20°C° 0 mm 5 mps 757 mmHg 90%
    02:00 +20°C° 0 mm 5 mps 757 mmHg 90%
    03:00 +20°C° 0 mm 5 mps 756 mmHg 91%
    04:00 +20°C° 0 mm 5 mps 756 mmHg 91%
    05:00 +20°C° 0 mm 5 mps 756 mmHg 91%
    06:00 +20°C° 1 mm 5 mps 756 mmHg 92%
    07:00 +20°C° 1 mm 5 mps 756 mmHg 93%
    08:00 +20°C° 1 mm 5 mps 756 mmHg 93%
    09:00 +20°C° 0.2 mm 4 mps 756 mmHg 92%
    10:00 +21°C° 0.2 mm 4 mps 756 mmHg 91%
    11:00 +21°C° 0.2 mm 4 mps 756 mmHg 90%
    12:00 +21°C° 1.2 mm 4 mps 756 mmHg 89%
    13:00 +22°C° 1.2 mm 3 mps 755 mmHg 88%
    14:00 +22°C° 1.2 mm 3 mps 755 mmHg 87%
    15:00 +22°C° 1.1 mm 3 mps 755 mmHg 89%
    16:00 +21°C° 1.1 mm 4 mps 755 mmHg 91%
    17:00 +20°C° 1.1 mm 5 mps 755 mmHg 94%
    18:00 +20°C° 0.7 mm 5 mps 755 mmHg 94%
    19:00 +20°C° 0.7 mm 5 mps 756 mmHg 94%
    20:00 +20°C° 0.7 mm 5 mps 756 mmHg 94%
    21:00 +20°C° 0.1 mm 5 mps 756 mmHg 94%
    22:00 +20°C° 0.1 mm 5 mps 756 mmHg 94%
    23:00 +20°C° 0.1 mm 6 mps 757 mmHg 94%

    Day after tomorrow, 22 March, Friday

    Time Temperature Precipitation Wind Pressure Humidity
    00:00 +19°C° 0.3 mm 6 mps 756 mmHg 94%
    01:00 +19°C° 0.3 mm 6 mps 756 mmHg 94%
    02:00 +19°C° 0.3 mm 6 mps 755 mmHg 94%
    03:00 +19°C° 0.1 mm 6 mps 756 mmHg 94%
    04:00 +19°C° 0.1 mm 6 mps 756 mmHg 93%
    05:00 +19°C° 0.1 mm 6 mps 756 mmHg 93%
    06:00 +19°C° 0.1 mm 6 mps 756 mmHg 93%
    07:00 +17°C° 0.1 mm 6 mps 757 mmHg 92%
    08:00 +17°C° 0.1 mm 6 mps 757 mmHg 92%
    09:00 +17°C° 0.1 mm 6 mps 757 mmHg 91%
    10:00 +17°C° 0.1 mm 6 mps 758 mmHg 90%
    11:00 +16°C° 0.1 mm 7 mps 758 mmHg 89%
    12:00 +17°C° 0 mm 7 mps 758 mmHg 85%
    13:00 +17°C° 0 mm 6 mps 758 mmHg 81%
    14:00 +17°C° 0 mm 6 mps 758 mmHg 77%
    15:00 +17°C° 0 mm 6 mps 758 mmHg 76%
    16:00 +16°C° 0 mm 6 mps 758 mmHg 75%
    17:00 +16°C° 0 mm 7 mps 759 mmHg 74%
    18:00 +16°C° 0 mm 6 mps 759 mmHg 73%
    19:00 +16°C° 0 mm 6 mps 760 mmHg 71%
    20:00 +16°C° 0 mm 5 mps 761 mmHg 70%
    21:00 +15°C° 0.1 mm 5 mps 761 mmHg 73%
    22:00 +15°C° 0.1 mm 6 mps 761 mmHg 77%
    23:00 +15°C° 0.1 mm 6 mps 761 mmHg 80%

    23 March, Saturday

    Time Temperature Precipitation Wind Pressure Humidity
    00:00 +14°C° 0.1 mm 6 mps 761 mmHg 80%
    01:00 +14°C° 0.1 mm 6 mps 761 mmHg 80%
    02:00 +13°C° 0.1 mm 6 mps 761 mmHg 79%
    03:00 +13°C° 0 mm 6 mps 761 mmHg 77%
    04:00 +13°C° 0 mm 5 mps 761 mmHg 76%
    05:00 +13°C° 0 mm 5 mps 761 mmHg 74%
    06:00 +13°C° 0 mm 5 mps 762 mmHg 71%
    07:00 +13°C° 0 mm 4 mps 762 mmHg 68%
    08:00 +14°C° 0 mm 4 mps 762 mmHg 66%
    09:00 +14°C° 0 mm 4 mps 762 mmHg 64%
    10:00 +14°C° 0 mm 3 mps 762 mmHg 62%
    11:00 +16°C° 0 mm 3 mps 762 mmHg 60%
    12:00 +17°C° 0 mm 3 mps 762 mmHg 58%
    13:00 +17°C° 0 mm 3 mps 761 mmHg 56%
    14:00 +18°C° 0 mm 4 mps 761 mmHg 54%
    15:00 +17°C° 0 mm 4 mps 760 mmHg 56%
    16:00 +17°C° 0 mm 4 mps 760 mmHg 59%
    17:00 +15°C° 0 mm 4 mps 760 mmHg 61%
    18:00 +14°C° 0 mm 3 mps 760 mmHg 65%
    19:00 +13°C° 0 mm 3 mps 760 mmHg 70%
    20:00 +12°C° 0 mm 3 mps 761 mmHg 74%
    21:00 +12°C° 0 mm 3 mps 761 mmHg 75%
    22:00 +12°C° 0 mm 3 mps 761 mmHg 76%
    23:00 +12°C° 0 mm 3 mps 761 mmHg 77%

    24 March, Sunday

    Time Temperature Precipitation Wind Pressure Humidity
    00:00 +12°C° 0 mm 4 mps 760 mmHg 77%
    01:00 +13°C° 0 mm 4 mps 760 mmHg 77%
    02:00 +13°C° 0 mm 4 mps 760 mmHg 77%
    03:00 +13°C° 0 mm 4 mps 760 mmHg 78%
    04:00 +13°C° 0 mm 5 mps 759 mmHg 78%
    05:00 +14°C° 0 mm 5 mps 759 mmHg 78%
    06:00 +14°C° 0.1 mm 4 mps 760 mmHg 77%
    07:00 +15°C° 0.1 mm 4 mps 760 mmHg 75%
    08:00 +15°C° 0.1 mm 4 mps 760 mmHg 74%
    09:00 +15°C° 0.1 mm 4 mps 761 mmHg 73%
    10:00 +16°C° 0.1 mm 5 mps 761 mmHg 71%
    11:00 +16°C° 0.1 mm 5 mps 761 mmHg 70%
    12:00 +16°C° 0 mm 5 mps 761 mmHg 67%
    13:00 +16°C° 0 mm 5 mps 761 mmHg 65%
    14:00 +16°C° 0 mm 5 mps 761 mmHg 62%
    15:00 +16°C° 0 mm 5 mps 761 mmHg 63%
    16:00 +16°C° 0 mm 5 mps 761 mmHg 64%
    17:00 +15°C° 0 mm 5 mps 762 mmHg 65%
    18:00 +15°C° 0 mm 4 mps 762 mmHg 67%
    19:00 +14°C° 0 mm 4 mps 763 mmHg 69%
    20:00 +13°C° 0 mm 4 mps 764 mmHg 71%
    21:00 +13°C° 0 mm 4 mps 764 mmHg 72%
    22:00 +12°C° 0 mm 4 mps 764 mmHg 74%
    23:00 +12°C° 0 mm 4 mps 764 mmHg 75%

    25 March, Monday

    Time Temperature Precipitation Wind Pressure Humidity
    00:00 +12°C° 0 mm 4 mps 764 mmHg 75%
    01:00 +12°C° 0 mm 4 mps 764 mmHg 74%
    02:00 +12°C° 0 mm 4 mps 764 mmHg 74%
    03:00 +12°C° 0 mm 4 mps 764 mmHg 75%
    04:00 +12°C° 0 mm 4 mps 764 mmHg 75%
    05:00 +12°C° 0 mm 4 mps 765 mmHg 76%
    06:00 +13°C° 0 mm 5 mps 765 mmHg 73%
    07:00 +13°C° 0 mm 5 mps 765 mmHg 71%
    08:00 +14°C° 0 mm 6 mps 766 mmHg 68%
    09:00 +15°C° 0 mm 6 mps 766 mmHg 65%
    10:00 +16°C° 0 mm 6 mps 766 mmHg 62%
    11:00 +17°C° 0 mm 6 mps 765 mmHg 59%
    12:00 +17°C° 0 mm 6 mps 765 mmHg 57%
    13:00 +19°C° 0 mm 6 mps 765 mmHg 56%
    14:00 +20°C° 0 mm 6 mps 764 mmHg 55%
    15:00 +19°C° 0 mm 6 mps 764 mmHg 58%
    16:00 +17°C° 0 mm 6 mps 764 mmHg 61%
    17:00 +17°C° 0 mm 7 mps 764 mmHg 64%
    18:00 +16°C° 0 mm 6 mps 764 mmHg 69%
    19:00 +15°C° 0 mm 6 mps 765 mmHg 73%
    20:00 +14°C° 0 mm 6 mps 765 mmHg 78%
    21:00 +14°C° 0 mm 6 mps 765 mmHg 79%
    22:00 +14°C° 0 mm 6 mps 765 mmHg 80%
    23:00 +14°C° 0 mm 6 mps 765 mmHg 81%
    Show more